Location: Dana
(41.8364°N, 106.7042°W)
Time: 00:41:04
(UTC+00:00)

Transit 2A - Visible Passes

Search period start: 12 May 2026 00:00
Search period end: 22 May 2026 00:00
Orbit: 593 x 950 km, 66.7° (Epoch: 11 May)

Date Brightness Start Highest point End Pass type
(mag) Time Alt. Az. Time Alt. Az. Time Alt. Az.
12 May 7.5 07:29:54 10° NNW 07:34:13 28° NE 07:35:28 25° ENE visible
12 May 6.9 09:12:51 10° NW 09:15:44 28° WNW 09:15:44 28° WNW visible
13 May 8.0 06:53:50 10° N 06:57:30 20° NE 06:59:19 16° ENE visible
13 May 6.5 08:36:11 10° NW 08:39:36 41° WNW 08:39:36 41° WNW visible
14 May 8.3 06:18:01 10° N 06:20:42 14° NE 06:23:16 10° ENE visible
14 May 6.3 07:59:41 10° NNW 08:03:34 54° NNW 08:03:34 54° NNW visible
15 May 8.6 05:43:01 10° NNE 05:43:50 10° NNE 05:44:39 10° NE visible
15 May 6.4 07:23:18 10° NNW 07:27:36 51° NNE 07:27:36 51° NNE visible
15 May 8.1 09:07:41 10° WNW 09:07:53 11° WNW 09:07:53 11° WNW visible
16 May 6.9 06:47:03 10° NNW 06:51:37 35° NE 06:51:42 35° NE visible
16 May 7.7 08:30:27 10° NW 08:31:59 17° WNW 08:31:59 17° WNW visible
17 May 7.5 06:10:54 10° N 06:14:58 24° NE 06:15:51 23° ENE visible
17 May 7.2 07:53:38 10° NW 07:56:09 27° WNW 07:56:09 27° WNW visible
18 May 7.9 05:34:55 10° N 05:38:13 17° NE 05:40:03 14° ENE visible
18 May 6.7 07:17:01 10° NW 07:20:21 42° NW 07:20:21 42° NW visible
19 May 8.2 04:59:15 10° N 05:01:24 13° NE 05:03:29 10° ENE visible
19 May 6.2 06:40:34 10° NNW 06:44:36 57° N 06:44:36 57° N visible
20 May 6.4 06:04:14 10° NNW 06:08:53 46° NE 06:08:53 46° NE visible
20 May 8.0 07:48:14 10° WNW 07:49:11 14° WNW 07:49:11 14° WNW visible
21 May 6.9 05:28:00 10° NNW 05:32:22 31° NE 05:33:12 29° ENE visible
21 May 7.4 07:11:10 10° NW 07:13:30 23° WNW 07:13:30 23° WNW visible
